Year,Month,Day,Hour,Minute,Value (Times are PST for windgust in km/hr)
2012,08,25,00,00,1.60
2012,08,25,00,02,1.60
2012,08,25,00,03,1.60
2012,08,25,00,04,1.60
2012,08,25,00,05,3.20
2012,08,25,00,06,1.60
2012,08,25,00,07,1.60
2012,08,25,00,08,3.20
2012,08,25,00,09,1.60
2012,08,25,00,15,1.60
2012,08,25,00,21,1.60
2012,08,25,00,22,1.60
2012,08,25,00,36,1.60
2012,08,25,00,40,1.60
2012,08,25,00,41,1.60
2012,08,25,00,42,1.60
2012,08,25,00,43,1.60
2012,08,25,00,55,3.20
2012,08,25,00,56,3.20
2012,08,25,00,57,3.20
2012,08,25,00,58,1.60
2012,08,25,01,05,1.60
2012,08,25,01,06,1.60
2012,08,25,01,07,4.80
2012,08,25,01,08,6.40
2012,08,25,01,09,4.80
2012,08,25,01,10,4.80
2012,08,25,01,11,3.20
2012,08,25,01,12,3.20
2012,08,25,01,13,1.60
2012,08,25,01,19,1.60
2012,08,25,01,20,1.60
2012,08,25,01,21,4.80
2012,08,25,01,22,4.80
2012,08,25,01,23,3.20
2012,08,25,01,24,4.80
2012,08,25,01,25,4.80
2012,08,25,01,26,4.80
2012,08,25,01,27,4.80
2012,08,25,01,28,4.80
2012,08,25,01,29,4.80
2012,08,25,01,30,4.80
2012,08,25,01,31,1.60
2012,08,25,01,32,1.60
2012,08,25,01,34,1.60
2012,08,25,01,35,1.60
2012,08,25,01,36,1.60
2012,08,25,01,37,1.60
2012,08,25,01,38,3.20
2012,08,25,01,39,3.20
2012,08,25,01,40,4.80
2012,08,25,01,41,4.80
2012,08,25,01,42,4.80
2012,08,25,01,43,4.80
2012,08,25,01,44,4.80
2012,08,25,01,45,4.80
2012,08,25,01,46,3.20
2012,08,25,01,47,3.20
2012,08,25,01,48,3.20
2012,08,25,01,49,1.60
2012,08,25,01,53,3.20
2012,08,25,01,54,1.60
2012,08,25,01,58,1.60
2012,08,25,02,01,1.60
2012,08,25,02,03,3.20
2012,08,25,02,04,4.80
2012,08,25,02,05,3.20
2012,08,25,02,06,3.20
2012,08,25,02,07,1.60
2012,08,25,02,08,1.60
2012,08,25,02,10,1.60
2012,08,25,02,11,1.60
2012,08,25,02,12,3.20
2012,08,25,02,13,3.20
2012,08,25,02,14,3.20
2012,08,25,02,15,3.20
2012,08,25,02,16,1.60
2012,08,25,02,17,1.60
2012,08,25,02,19,3.20
2012,08,25,02,20,3.20
2012,08,25,02,22,1.60
2012,08,25,02,25,1.60
2012,08,25,02,26,3.20
2012,08,25,02,27,3.20
2012,08,25,02,28,3.20
2012,08,25,02,29,1.60
2012,08,25,02,30,1.60
2012,08,25,02,31,3.20
2012,08,25,02,32,1.60
2012,08,25,02,33,4.80
2012,08,25,02,34,1.60
2012,08,25,02,38,1.60
2012,08,25,02,40,1.60
2012,08,25,02,41,3.20
2012,08,25,02,43,1.60
2012,08,25,02,44,1.60
2012,08,25,02,45,4.80
2012,08,25,02,46,4.80
2012,08,25,02,47,4.80
2012,08,25,02,48,4.80
2012,08,25,02,49,4.80
2012,08,25,02,50,4.80
2012,08,25,02,51,3.20
2012,08,25,02,52,1.60
2012,08,25,02,54,1.60
2012,08,25,02,55,1.60
2012,08,25,02,56,4.80
2012,08,25,02,57,4.80
2012,08,25,02,58,6.40
2012,08,25,02,59,4.80
2012,08,25,03,00,6.40
2012,08,25,03,01,6.40
2012,08,25,03,02,4.80
2012,08,25,03,03,4.80
2012,08,25,03,04,3.20
2012,08,25,03,05,4.80
2012,08,25,03,06,4.80
2012,08,25,03,07,4.80
2012,08,25,03,08,3.20
2012,08,25,03,09,3.20
2012,08,25,03,10,3.20
2012,08,25,03,11,3.20
2012,08,25,03,18,1.60
2012,08,25,03,19,1.60
2012,08,25,03,20,3.20
2012,08,25,03,21,1.60
2012,08,25,03,22,3.20
2012,08,25,03,23,3.20
2012,08,25,03,24,6.40
2012,08,25,03,25,3.20
2012,08,25,03,26,1.60
2012,08,25,03,30,1.60
2012,08,25,03,31,1.60
2012,08,25,03,32,3.20
2012,08,25,03,33,3.20
2012,08,25,03,34,1.60
2012,08,25,03,35,1.60
2012,08,25,03,36,3.20
2012,08,25,03,37,4.80
2012,08,25,03,38,1.60
2012,08,25,03,39,1.60
2012,08,25,03,40,1.60
2012,08,25,03,42,1.60
2012,08,25,03,44,1.60
2012,08,25,03,47,1.60
2012,08,25,03,48,1.60
2012,08,25,03,49,1.60
2012,08,25,03,50,3.20
2012,08,25,03,51,1.60
2012,08,25,03,52,3.20
2012,08,25,03,54,1.60
2012,08,25,03,55,3.20
2012,08,25,03,56,1.60
2012,08,25,03,57,3.20
2012,08,25,03,58,3.20
2012,08,25,03,59,3.20
2012,08,25,04,01,1.60
2012,08,25,04,02,4.80
2012,08,25,04,03,3.20
2012,08,25,04,04,1.60
2012,08,25,04,07,1.60
2012,08,25,04,08,3.20
2012,08,25,04,09,1.60
2012,08,25,04,10,1.60
2012,08,25,04,12,3.20
2012,08,25,04,21,1.60
2012,08,25,04,27,1.60
2012,08,25,04,29,1.60
2012,08,25,04,30,1.60
2012,08,25,04,31,1.60
2012,08,25,04,32,1.60
2012,08,25,04,33,1.60
2012,08,25,04,34,1.60
2012,08,25,04,35,1.60
2012,08,25,04,36,3.20
2012,08,25,04,37,4.80
2012,08,25,04,38,4.80
2012,08,25,04,41,1.60
2012,08,25,04,47,1.60
2012,08,25,04,48,1.60
2012,08,25,04,50,1.60
2012,08,25,04,51,1.60
2012,08,25,04,52,1.60
2012,08,25,04,54,1.60
2012,08,25,04,59,1.60
2012,08,25,05,01,1.60
2012,08,25,05,02,1.60
2012,08,25,05,06,1.60
2012,08,25,05,07,1.60
2012,08,25,05,08,1.60
2012,08,25,05,09,1.60
2012,08,25,05,10,1.60
2012,08,25,05,16,1.60
2012,08,25,05,20,1.60
2012,08,25,05,30,1.60
2012,08,25,05,32,1.60
2012,08,25,05,34,1.60
2012,08,25,05,53,1.60
2012,08,25,05,54,1.60
2012,08,25,06,23,1.60
2012,08,25,06,24,1.60
2012,08,25,06,25,1.60
2012,08,25,06,31,1.60
2012,08,25,06,34,1.60
2012,08,25,06,36,1.60
2012,08,25,06,37,1.60
2012,08,25,07,20,1.60
2012,08,25,07,51,1.60
2012,08,25,07,52,1.60
2012,08,25,07,53,1.60
2012,08,25,07,54,1.60
2012,08,25,07,55,3.20
2012,08,25,07,56,3.20
2012,08,25,07,57,1.60
2012,08,25,07,58,1.60
2012,08,25,07,59,3.20
2012,08,25,08,00,3.20
2012,08,25,08,01,3.20
2012,08,25,08,02,1.60
2012,08,25,08,03,1.60
2012,08,25,08,04,1.60
2012,08,25,08,05,1.60
2012,08,25,08,06,3.20
2012,08,25,08,07,1.60
2012,08,25,08,09,1.60
2012,08,25,08,11,1.60
2012,08,25,08,18,1.60
2012,08,25,08,21,1.60
2012,08,25,08,25,4.80
2012,08,25,08,26,4.80
2012,08,25,08,27,3.20
2012,08,25,08,28,3.20
2012,08,25,08,29,1.60
2012,08,25,08,30,1.60
2012,08,25,08,31,1.60
2012,08,25,08,33,1.60
2012,08,25,08,34,3.20
2012,08,25,08,35,3.20
2012,08,25,08,36,1.60
2012,08,25,08,37,4.80
2012,08,25,08,38,1.60
2012,08,25,08,39,1.60
2012,08,25,08,40,3.20
2012,08,25,08,41,4.80
2012,08,25,08,42,4.80
2012,08,25,08,43,11.30
2012,08,25,08,44,6.40
2012,08,25,08,45,3.20
2012,08,25,08,46,4.80
2012,08,25,08,47,3.20
2012,08,25,08,48,8.10
2012,08,25,08,49,6.40
2012,08,25,08,50,8.10
2012,08,25,08,51,6.40
2012,08,25,08,52,6.40
2012,08,25,08,53,14.50
2012,08,25,08,54,14.50
2012,08,25,08,55,11.30
2012,08,25,08,56,6.40
2012,08,25,08,57,4.80
2012,08,25,08,58,3.20
2012,08,25,08,59,3.20
2012,08,25,09,00,6.40
2012,08,25,09,01,4.80
2012,08,25,09,02,1.60
2012,08,25,09,03,1.60
2012,08,25,09,04,3.20
2012,08,25,09,05,1.60
2012,08,25,09,06,6.40
2012,08,25,09,07,6.40
2012,08,25,09,08,6.40
2012,08,25,09,09,4.80
2012,08,25,09,11,4.80
2012,08,25,09,12,4.80
2012,08,25,09,13,1.60
2012,08,25,09,14,3.20
2012,08,25,09,15,6.40
2012,08,25,09,16,4.80
2012,08,25,09,17,8.10
2012,08,25,09,18,6.40
2012,08,25,09,19,3.20
2012,08,25,09,20,9.60
2012,08,25,09,21,8.10
2012,08,25,09,22,8.10
2012,08,25,09,23,11.30
2012,08,25,09,24,8.10
2012,08,25,09,25,9.60
2012,08,25,09,26,8.10
2012,08,25,09,27,4.80
2012,08,25,09,28,6.40
2012,08,25,09,29,11.30
2012,08,25,09,30,6.40
2012,08,25,09,31,8.10
2012,08,25,09,32,8.10
2012,08,25,09,33,8.10
2012,08,25,09,34,9.60
2012,08,25,09,35,6.40
2012,08,25,09,36,8.10
2012,08,25,09,37,9.60
2012,08,25,09,38,11.30
2012,08,25,09,39,11.30
2012,08,25,09,40,11.30
2012,08,25,09,41,4.80
2012,08,25,09,42,16.10
2012,08,25,09,43,12.90
2012,08,25,09,44,8.10
2012,08,25,09,45,9.60
2012,08,25,09,46,8.10
2012,08,25,09,47,9.60
2012,08,25,09,48,8.10
2012,08,25,09,49,6.40
2012,08,25,09,50,4.80
2012,08,25,09,51,4.80
2012,08,25,09,52,9.60
2012,08,25,09,53,8.10
2012,08,25,09,54,12.90
2012,08,25,09,55,9.60
2012,08,25,09,56,6.40
2012,08,25,09,57,9.60
2012,08,25,09,58,14.50
2012,08,25,09,59,16.10
2012,08,25,10,00,8.10
2012,08,25,10,01,8.10
2012,08,25,10,02,11.30
2012,08,25,10,03,9.60
2012,08,25,10,04,14.50
2012,08,25,10,05,12.90
2012,08,25,10,06,11.30
2012,08,25,10,07,14.50
2012,08,25,10,08,12.90
2012,08,25,10,09,8.10
2012,08,25,10,10,17.70
2012,08,25,10,11,9.60
2012,08,25,10,12,4.80
2012,08,25,10,13,4.80
2012,08,25,10,14,11.30
2012,08,25,10,15,11.30
2012,08,25,10,16,12.90
2012,08,25,10,17,4.80
2012,08,25,10,18,4.80
2012,08,25,10,19,6.40
2012,08,25,10,20,6.40
2012,08,25,10,21,6.40
2012,08,25,10,22,9.60
2012,08,25,10,23,11.30
2012,08,25,10,24,12.90
2012,08,25,10,25,8.10
2012,08,25,10,26,4.80
2012,08,25,10,27,6.40
2012,08,25,10,28,9.60
2012,08,25,10,29,6.40
2012,08,25,10,30,16.10
2012,08,25,10,31,16.10
2012,08,25,10,32,11.30
2012,08,25,10,33,11.30
2012,08,25,10,34,9.60
2012,08,25,10,35,12.90
2012,08,25,10,36,11.30
2012,08,25,10,37,16.10
2012,08,25,10,38,16.10
2012,08,25,10,39,14.50
2012,08,25,10,40,12.90
2012,08,25,10,41,9.60
2012,08,25,10,42,8.10
2012,08,25,10,43,17.70
2012,08,25,10,44,11.30
2012,08,25,10,45,9.60
2012,08,25,10,46,17.70
2012,08,25,10,47,14.50
2012,08,25,10,48,6.40
2012,08,25,10,49,6.40
2012,08,25,10,50,14.50
2012,08,25,10,51,16.10
2012,08,25,10,52,11.30
2012,08,25,10,53,9.60
2012,08,25,10,54,14.50
2012,08,25,10,55,4.80
2012,08,25,10,56,14.50
2012,08,25,10,57,9.60
2012,08,25,10,58,3.20
2012,08,25,10,59,12.90
2012,08,25,11,00,14.50
2012,08,25,11,01,6.40
2012,08,25,11,02,6.40
2012,08,25,11,03,16.10
2012,08,25,11,04,11.30
2012,08,25,11,05,14.50
2012,08,25,11,06,14.50
2012,08,25,11,07,11.30
2012,08,25,11,08,9.60
2012,08,25,11,09,11.30
2012,08,25,11,10,8.10
2012,08,25,11,11,14.50
2012,08,25,11,12,14.50
2012,08,25,11,13,6.40
2012,08,25,11,14,8.10
2012,08,25,11,15,14.50
2012,08,25,11,16,14.50
2012,08,25,11,17,16.10
2012,08,25,11,18,16.10
2012,08,25,11,19,9.60
2012,08,25,11,20,9.60
2012,08,25,11,21,14.50
2012,08,25,11,22,4.80
2012,08,25,11,23,1.60
2012,08,25,11,24,9.60
2012,08,25,11,25,9.60
2012,08,25,11,26,8.10
2012,08,25,11,27,3.20
2012,08,25,11,28,9.60
2012,08,25,11,29,11.30
2012,08,25,11,30,6.40
2012,08,25,11,31,8.10
2012,08,25,11,32,8.10
2012,08,25,11,33,9.60
2012,08,25,11,34,8.10
2012,08,25,11,35,6.40
2012,08,25,11,36,11.30
2012,08,25,11,37,11.30
2012,08,25,11,38,11.30
2012,08,25,11,39,9.60
2012,08,25,11,40,4.80
2012,08,25,11,41,8.10
2012,08,25,11,42,8.10
2012,08,25,11,43,9.60
2012,08,25,11,44,8.10
2012,08,25,11,45,16.10
2012,08,25,11,46,14.50
2012,08,25,11,47,6.40
2012,08,25,11,48,8.10
2012,08,25,11,49,8.10
2012,08,25,11,50,16.10
2012,08,25,11,51,8.10
2012,08,25,11,52,9.60
2012,08,25,11,53,11.30
2012,08,25,11,54,6.40
2012,08,25,11,55,8.10
2012,08,25,11,56,11.30
2012,08,25,11,57,8.10
2012,08,25,11,58,6.40
2012,08,25,11,59,9.60
2012,08,25,12,00,3.20
2012,08,25,12,01,1.60
2012,08,25,12,02,3.20
2012,08,25,12,03,6.40
2012,08,25,12,04,3.20
2012,08,25,12,05,6.40
2012,08,25,12,06,6.40
2012,08,25,12,07,6.40
2012,08,25,12,08,9.60
2012,08,25,12,09,6.40
2012,08,25,12,10,9.60
2012,08,25,12,11,12.90
2012,08,25,12,12,8.10
2012,08,25,12,13,6.40
2012,08,25,12,14,9.60
2012,08,25,12,15,9.60
2012,08,25,12,16,8.10
2012,08,25,12,17,6.40
2012,08,25,12,18,8.10
2012,08,25,12,19,8.10
2012,08,25,12,20,16.10
2012,08,25,12,21,16.10
2012,08,25,12,22,14.50
2012,08,25,12,23,14.50
2012,08,25,12,24,9.60
2012,08,25,12,25,4.80
2012,08,25,12,26,9.60
2012,08,25,12,27,17.70
2012,08,25,12,28,16.10
2012,08,25,12,29,16.10
2012,08,25,12,30,6.40
2012,08,25,12,31,3.20
2012,08,25,12,32,11.30
2012,08,25,12,33,16.10
2012,08,25,12,34,17.70
2012,08,25,12,35,20.90
2012,08,25,12,36,12.90
2012,08,25,12,37,1.60
2012,08,25,12,38,8.10
2012,08,25,12,39,9.60
2012,08,25,12,40,8.10
2012,08,25,12,41,4.80
2012,08,25,12,42,1.60
2012,08,25,12,43,1.60
2012,08,25,12,44,4.80
2012,08,25,12,45,4.80
2012,08,25,12,46,4.80
2012,08,25,12,47,9.60
2012,08,25,12,48,9.60
2012,08,25,12,49,8.10
2012,08,25,12,50,12.90
2012,08,25,12,51,16.10
2012,08,25,12,52,14.50
2012,08,25,12,53,8.10
2012,08,25,12,54,8.10
2012,08,25,12,55,14.50
2012,08,25,12,56,16.10
2012,08,25,12,57,17.70
2012,08,25,12,58,19.30
2012,08,25,12,59,19.30
2012,08,25,13,00,11.30
2012,08,25,13,01,9.60
2012,08,25,13,02,9.60
2012,08,25,13,03,11.30
2012,08,25,13,04,8.10
2012,08,25,13,05,11.30
2012,08,25,13,06,8.10
2012,08,25,13,07,11.30
2012,08,25,13,08,12.90
2012,08,25,13,09,6.40
2012,08,25,13,10,6.40
2012,08,25,13,11,3.20
2012,08,25,13,12,8.10
2012,08,25,13,13,19.30
2012,08,25,13,14,14.50
2012,08,25,13,15,6.40
2012,08,25,13,16,9.60
2012,08,25,13,17,9.60
2012,08,25,13,18,3.20
2012,08,25,13,19,6.40
2012,08,25,13,20,6.40
2012,08,25,13,21,6.40
2012,08,25,13,22,1.60
2012,08,25,13,23,8.10
2012,08,25,13,24,14.50
2012,08,25,13,25,11.30
2012,08,25,13,26,9.60
2012,08,25,13,27,11.30
2012,08,25,13,28,12.90
2012,08,25,13,29,3.20
2012,08,25,13,30,3.20
2012,08,25,13,31,8.10
2012,08,25,13,32,9.60
2012,08,25,13,33,11.30
2012,08,25,13,34,12.90
2012,08,25,13,35,9.60
2012,08,25,13,36,12.90
2012,08,25,13,37,9.60
2012,08,25,13,38,6.40
2012,08,25,13,39,1.60
2012,08,25,13,40,6.40
2012,08,25,13,41,8.10
2012,08,25,13,42,9.60
2012,08,25,13,43,9.60
2012,08,25,13,44,9.60
2012,08,25,13,45,8.10
2012,08,25,13,46,9.60
2012,08,25,13,47,8.10
2012,08,25,13,48,9.60
2012,08,25,13,49,11.30
2012,08,25,13,50,6.40
2012,08,25,13,51,9.60
2012,08,25,13,52,1.60
2012,08,25,13,53,6.40
2012,08,25,13,54,14.50
2012,08,25,13,55,8.10
2012,08,25,13,56,8.10
2012,08,25,13,57,4.80
2012,08,25,13,58,8.10
2012,08,25,13,59,6.40
2012,08,25,14,00,16.10
2012,08,25,14,01,9.60
2012,08,25,14,02,6.40
2012,08,25,14,03,4.80
2012,08,25,14,04,9.60
2012,08,25,14,05,11.30
2012,08,25,14,06,8.10
2012,08,25,14,07,12.90
2012,08,25,14,08,11.30
2012,08,25,14,09,3.20
2012,08,25,14,10,3.20
2012,08,25,14,11,4.80
2012,08,25,14,12,6.40
2012,08,25,14,13,8.10
2012,08,25,14,14,4.80
2012,08,25,14,15,4.80
2012,08,25,14,16,3.20
2012,08,25,14,17,4.80
2012,08,25,14,18,1.60
2012,08,25,14,19,3.20
2012,08,25,14,20,4.80
2012,08,25,14,21,6.40
2012,08,25,14,22,11.30
2012,08,25,14,23,16.10
2012,08,25,14,24,8.10
2012,08,25,14,25,8.10
2012,08,25,14,26,6.40
2012,08,25,14,27,1.60
2012,08,25,14,28,3.20
2012,08,25,14,29,4.80
2012,08,25,14,30,6.40
2012,08,25,14,31,9.60
2012,08,25,14,32,9.60
2012,08,25,14,33,14.50
2012,08,25,14,34,12.90
2012,08,25,14,35,9.60
2012,08,25,14,36,14.50
2012,08,25,14,37,16.10
2012,08,25,14,38,14.50
2012,08,25,14,39,14.50
2012,08,25,14,40,14.50
2012,08,25,14,41,9.60
2012,08,25,14,42,9.60
2012,08,25,14,43,4.80
2012,08,25,14,44,11.30
2012,08,25,14,45,8.10
2012,08,25,14,46,14.50
2012,08,25,14,47,8.10
2012,08,25,14,48,3.20
2012,08,25,14,49,1.60
2012,08,25,14,50,1.60
2012,08,25,14,52,6.40
2012,08,25,14,53,4.80
2012,08,25,14,54,9.60
2012,08,25,14,55,6.40
2012,08,25,14,56,4.80
2012,08,25,14,57,4.80
2012,08,25,14,58,3.20
2012,08,25,14,59,9.60
2012,08,25,15,00,14.50
2012,08,25,15,01,9.60
2012,08,25,15,02,14.50
2012,08,25,15,03,11.30
2012,08,25,15,04,8.10
2012,08,25,15,05,6.40
2012,08,25,15,06,12.90
2012,08,25,15,07,6.40
2012,08,25,15,08,4.80
2012,08,25,15,09,8.10
2012,08,25,15,10,8.10
2012,08,25,15,11,8.10
2012,08,25,15,12,8.10
2012,08,25,15,13,16.10
2012,08,25,15,14,16.10
2012,08,25,15,15,11.30
2012,08,25,15,16,11.30
2012,08,25,15,17,14.50
2012,08,25,15,18,12.90
2012,08,25,15,19,14.50
2012,08,25,15,20,11.30
2012,08,25,15,21,9.60
2012,08,25,15,22,4.80
2012,08,25,15,23,9.60
2012,08,25,15,24,6.40
2012,08,25,15,25,8.10
2012,08,25,15,26,8.10
2012,08,25,15,27,14.50
2012,08,25,15,28,17.70
2012,08,25,15,29,14.50
2012,08,25,15,30,14.50
2012,08,25,15,31,4.80
2012,08,25,15,32,16.10
2012,08,25,15,33,9.60
2012,08,25,15,34,3.20
2012,08,25,15,35,3.20
2012,08,25,15,36,9.60
2012,08,25,15,37,16.10
2012,08,25,15,38,9.60
2012,08,25,15,39,11.30
2012,08,25,15,40,16.10
2012,08,25,15,41,12.90
2012,08,25,15,42,16.10
2012,08,25,15,43,16.10
2012,08,25,15,44,16.10
2012,08,25,15,45,8.10
2012,08,25,15,46,6.40
2012,08,25,15,47,11.30
2012,08,25,15,48,16.10
2012,08,25,15,49,16.10
2012,08,25,15,50,17.70
2012,08,25,15,51,8.10
2012,08,25,15,52,9.60
2012,08,25,15,53,16.10
2012,08,25,15,54,17.70
2012,08,25,15,55,14.50
2012,08,25,15,56,14.50
2012,08,25,15,57,16.10
2012,08,25,15,58,9.60
2012,08,25,15,59,8.10
2012,08,25,16,00,17.70
2012,08,25,16,01,16.10
2012,08,25,16,02,9.60
2012,08,25,16,03,8.10
2012,08,25,16,04,9.60
2012,08,25,16,05,12.90
2012,08,25,16,06,9.60
2012,08,25,16,07,4.80
2012,08,25,16,08,9.60
2012,08,25,16,09,11.30
2012,08,25,16,10,6.40
2012,08,25,16,11,6.40
2012,08,25,16,12,4.80
2012,08,25,16,13,14.50
2012,08,25,16,14,14.50
2012,08,25,16,15,8.10
2012,08,25,16,16,8.10
2012,08,25,16,17,6.40
2012,08,25,16,18,9.60
2012,08,25,16,19,4.80
2012,08,25,16,20,4.80
2012,08,25,16,21,14.50
2012,08,25,16,22,16.10
2012,08,25,16,23,8.10
2012,08,25,16,24,11.30
2012,08,25,16,25,16.10
2012,08,25,16,26,17.70
2012,08,25,16,27,17.70
2012,08,25,16,28,16.10
2012,08,25,16,29,11.30
2012,08,25,16,30,8.10
2012,08,25,16,31,6.40
2012,08,25,16,32,8.10
2012,08,25,16,33,8.10
2012,08,25,16,34,8.10
2012,08,25,16,35,11.30
2012,08,25,16,36,11.30
2012,08,25,16,37,9.60
2012,08,25,16,38,8.10
2012,08,25,16,39,11.30
2012,08,25,16,40,9.60
2012,08,25,16,41,14.50
2012,08,25,16,42,14.50
2012,08,25,16,43,8.10
2012,08,25,16,44,9.60
2012,08,25,16,45,8.10
2012,08,25,16,46,14.50
2012,08,25,16,47,8.10
2012,08,25,16,48,9.60
2012,08,25,16,49,12.90
2012,08,25,16,50,6.40
2012,08,25,16,51,17.70
2012,08,25,16,52,14.50
2012,08,25,16,53,8.10
2012,08,25,16,54,11.30
2012,08,25,16,55,16.10
2012,08,25,16,56,14.50
2012,08,25,16,57,11.30
2012,08,25,16,58,16.10
2012,08,25,16,59,9.60
2012,08,25,17,00,9.60
2012,08,25,17,01,11.30
2012,08,25,17,02,9.60
2012,08,25,17,03,11.30
2012,08,25,17,04,11.30
2012,08,25,17,05,14.50
2012,08,25,17,06,6.40
2012,08,25,17,07,9.60
2012,08,25,17,08,9.60
2012,08,25,17,09,9.60
2012,08,25,17,10,6.40
2012,08,25,17,11,11.30
2012,08,25,17,12,11.30
2012,08,25,17,13,8.10
2012,08,25,17,14,6.40
2012,08,25,17,15,6.40
2012,08,25,17,16,11.30
2012,08,25,17,17,11.30
2012,08,25,17,18,6.40
2012,08,25,17,19,1.60
2012,08,25,17,20,8.10
2012,08,25,17,21,8.10
2012,08,25,17,22,8.10
2012,08,25,17,23,4.80
2012,08,25,17,24,9.60
2012,08,25,17,25,6.40
2012,08,25,17,26,3.20
2012,08,25,17,27,8.10
2012,08,25,17,28,8.10
2012,08,25,17,29,11.30
2012,08,25,17,30,11.30
2012,08,25,17,31,11.30
2012,08,25,17,32,8.10
2012,08,25,17,33,9.60
2012,08,25,17,34,9.60
2012,08,25,17,35,8.10
2012,08,25,17,36,14.50
2012,08,25,17,37,9.60
2012,08,25,17,38,8.10
2012,08,25,17,39,4.80
2012,08,25,17,40,6.40
2012,08,25,17,41,8.10
2012,08,25,17,42,3.20
2012,08,25,17,43,4.80
2012,08,25,17,44,3.20
2012,08,25,17,45,8.10
2012,08,25,17,46,11.30
2012,08,25,17,47,9.60
2012,08,25,17,48,11.30
2012,08,25,17,49,9.60
2012,08,25,17,50,4.80
2012,08,25,17,51,9.60
2012,08,25,17,52,6.40
2012,08,25,17,53,8.10
2012,08,25,17,54,8.10
2012,08,25,17,55,6.40
2012,08,25,17,56,4.80
2012,08,25,17,57,6.40
2012,08,25,17,58,4.80
2012,08,25,17,59,9.60
2012,08,25,18,00,6.40
2012,08,25,18,01,11.30
2012,08,25,18,02,9.60
2012,08,25,18,03,4.80
2012,08,25,18,04,1.60
2012,08,25,18,05,8.10
2012,08,25,18,06,6.40
2012,08,25,18,07,6.40
2012,08,25,18,08,6.40
2012,08,25,18,09,6.40
2012,08,25,18,10,6.40
2012,08,25,18,11,3.20
2012,08,25,18,12,4.80
2012,08,25,18,13,4.80
2012,08,25,18,14,6.40
2012,08,25,18,15,6.40
2012,08,25,18,16,6.40
2012,08,25,18,17,8.10
2012,08,25,18,18,8.10
2012,08,25,18,19,4.80
2012,08,25,18,20,3.20
2012,08,25,18,21,6.40
2012,08,25,18,22,4.80
2012,08,25,18,23,6.40
2012,08,25,18,24,4.80
2012,08,25,18,25,6.40
2012,08,25,18,26,6.40
2012,08,25,18,27,4.80
2012,08,25,18,28,6.40
2012,08,25,18,29,3.20
2012,08,25,18,30,3.20
2012,08,25,18,31,4.80
2012,08,25,18,32,6.40
2012,08,25,18,33,9.60
2012,08,25,18,34,4.80
2012,08,25,18,35,8.10
2012,08,25,18,36,8.10
2012,08,25,18,37,6.40
2012,08,25,18,38,4.80
2012,08,25,18,39,6.40
2012,08,25,18,40,6.40
2012,08,25,18,41,8.10
2012,08,25,18,42,6.40
2012,08,25,18,43,6.40
2012,08,25,18,44,6.40
2012,08,25,18,45,6.40
2012,08,25,18,46,3.20
2012,08,25,18,47,4.80
2012,08,25,18,48,3.20
2012,08,25,18,49,4.80
2012,08,25,18,50,3.20
2012,08,25,18,51,1.60
2012,08,25,18,52,6.40
2012,08,25,18,53,1.60
2012,08,25,18,54,4.80
2012,08,25,18,55,3.20
2012,08,25,18,56,1.60
2012,08,25,18,57,4.80
2012,08,25,18,58,4.80
2012,08,25,18,59,6.40
2012,08,25,19,00,4.80
2012,08,25,19,01,1.60
2012,08,25,19,02,1.60
2012,08,25,19,03,4.80
2012,08,25,19,04,4.80
2012,08,25,19,05,3.20
2012,08,25,19,06,4.80
2012,08,25,19,07,1.60
2012,08,25,19,08,1.60
2012,08,25,19,09,1.60
2012,08,25,19,10,1.60
2012,08,25,19,11,1.60
2012,08,25,19,19,1.60
2012,08,25,19,20,1.60
2012,08,25,19,23,1.60
2012,08,25,19,25,1.60
2012,08,25,19,29,1.60
2012,08,25,19,30,1.60
2012,08,25,19,33,1.60
2012,08,25,19,34,1.60
2012,08,25,19,37,1.60
2012,08,25,19,38,1.60
2012,08,25,19,39,1.60
2012,08,25,19,40,1.60
2012,08,25,19,41,1.60
2012,08,25,19,42,1.60
2012,08,25,19,43,1.60
2012,08,25,19,45,1.60
2012,08,25,19,48,1.60
2012,08,25,19,56,1.60
2012,08,25,19,58,1.60
2012,08,25,20,03,3.20
2012,08,25,20,07,1.60
2012,08,25,20,14,3.20
2012,08,25,20,15,1.60
2012,08,25,20,26,1.60
2012,08,25,20,27,1.60
2012,08,25,20,28,1.60
2012,08,25,20,29,1.60
